Regional Weather Roundup
Issued by NWS

Home | Current Version | Previous Version | Text Only | Print | Product List | Glossary On
Versions: 1 2 3 4 5 6 7 8 9 10 11 12 13 14 15 16 17 18 19 20 21 22 23 24 25 26 27 28
000
ASUS42 KKEY 291610
RWRKEY

FLORIDA REGIONAL WEATHER ROUNDUP FOR THE FLORIDA KEYS
NATIONAL WEATHER SERVICE KEY WEST FLORIDA
1200 PM EDT SUN MAY 29 2016

...SOUTH FLORIDA AND THE KEYS...

CITY           SKY/WX    TMP DP  RH WIND       PRES   REMARKS
FORT MYERS     SUNNY     89  62  40 SW6       30.06S
SW REGIONAL AP MOSUNNY   88  65  46 S5        30.07S HX  90
NAPLES         SUNNY     89  61  38 CALM      30.07R
MIAMI          MOSUNNY   86  68  54 E5        30.06S
WEST KENDALL   MOSUNNY   88  69  53 E8        30.06S HX  92
HOMESTEAD      SUNNY     85  72  63 E8        30.06S HX  91
MARATHON       SUNNY     87  70  56 NE8       30.06S HX  92
BOCA CHICA NAS MOSUNNY   87  71  58 N9        30.07R HX  93
KEY WEST INTL  CLOUDY    84  72  67 SE6       30.07S

...INTERNATIONAL WEATHER...

CITY           SKY/WX    TMP DP  RH WIND       PRES   REMARKS
NASSAU BAHAMAS TSTM      77  64  65 S6        30.08S
CANCUN MEXICO  PTSUNNY   86  75  70 SE12      30.03R HX  95
COZUMEL MEXICO MOSUNNY   86  73  66 E12       30.02R HX  93

ADJACENT COASTAL WATERS...

STATION/POSITION TIME  SKY/WX   TEMP    WIND        PRES    WAVE
                                AIR SEA DIR/SP/G            HT/PER
                 (UTC)          (F)     (DEG/KT/KT) (MB)    (FT/S)
PULASKI SHOAL LI 1600            81      40/  6/  7 1018.6R
SAND KEY         1550            82      10/  1/  3 1018.7R
SOMBRERO KEY     NOT AVBL
LONG KEY         1600            82 85   50/  3/  4 1018.6R
MOLASSES REEF    1600            82 84   90/  3/  3 1018.6R
FOWEY ROCKS      1600            81 82   50/  6/  7 1019.0R

$$




USA.gov is the U.S. government's official web portal to all federal, state and local government web resources and services.